Location: Mason Neck State Park
(38.6428°N, 77.1981°W)
Time: 00:38:57
(UTC-04:00)

Cosmos 2278 Rocket - Visible Passes

Search period start: 22 April 2018 00:00
Search period end: 02 May 2018 00:00
Orbit: 840 x 846 km, 71.0° (Epoch: 21 April)

Date Brightness Start Highest point End Pass type
(mag) Time Alt. Az. Time Alt. Az. Time Alt. Az.
22 Apr 2.7 21:47:37 10° NNW 21:53:09 55° WSW 21:56:10 26° S visible
23 Apr 2.7 21:33:03 10° NNW 21:38:37 57° WSW 21:42:33 19° S visible
24 Apr 2.6 21:18:29 10° NNW 21:24:05 60° WSW 21:29:00 13° S visible
25 Apr 2.6 21:03:55 10° NNW 21:09:31 63° WSW 21:15:06 10° S visible
26 Apr 2.6 20:49:20 10° NNW 20:54:58 66° WSW 21:00:34 10° S visible
27 Apr 2.5 20:34:46 10° NNW 20:40:25 69° WSW 20:46:03 10° SSE visible
28 Apr 2.5 20:20:12 10° NNW 20:25:52 73° WSW 20:31:30 10° SSE visible
